Hourly Data Report for October 23, 2016

All times are specified in Local Standard Time (LST). Add 1 hour to adjust for Daylight Saving Time where and when it is observed.

KITCHENER/WATERLOO
ONTARIO

43°27'39.000" N
80°22'43.000" W
321.60 m
6144239
71368
YKF

Download Data

Hourly Data (October 2016)
Hourly Data Report for October 23, 2016
Temp Definition
°C
Dew Point Temp Definition
°C
Rel Hum Definition
%
Wind Dir Definition
10's deg

Wind Spd Definition
km/h
Visibility Definition
km
Stn Press Definition
kPa
Hmdx Definition


Wind Chill Definition


Weather Definition


TIME
00:00 Legend Double Dagger 4.4 1.4 81 27 18 16.1 97.28     LegendNANA
01:00 Legend Double Dagger 5.8 2.2 78 27 17 16.1 97.30     LegendNANA
02:00 Legend Double Dagger 6.4 2.9 78 27 21 16.1 97.30     LegendNANA
03:00 Legend Double Dagger 7.1 3.9 80 28 21 16.1 97.32     LegendNANA
04:00 Legend Double Dagger 6.8 5.3 90 27 18 16.1 97.36     Rain
05:00 Legend Double Dagger 7.0 5.5 90 29 17 16.1 97.38     Rain
06:00 Legend Double Dagger 6.6 5.6 93 28 5 16.1 97.39     LegendNANA
07:00 Legend Double Dagger 6.0 5.0 94 27 5 16.1 97.43     LegendNANA
08:00 Legend Double Dagger 7.0 6.1 94 22 5 16.1 97.46     LegendNANA
09:00 Legend Double Dagger 8.8 6.8 87 24 11 16.1 97.49     LegendNANA
10:00 Legend Double Dagger 10.4 7.0 79 25 24 16.1 97.46     LegendNANA
11:00 Legend Double Dagger 11.2 6.7 74 25 18 16.1 97.42     LegendNANA
12:00 Legend Double Dagger 11.8 5.4 65 28 30 16.1 97.36     LegendNANA
13:00 Legend Double Dagger 12.2 4.9 61 26 28 16.1 97.35     LegendNANA
14:00 Legend Double Dagger 13.0 5.0 58 25 28 16.1 97.33     LegendNANA
15:00 Legend Double Dagger 12.3 5.1 61 26 18 16.1 97.31     LegendNANA
16:00 Legend Double Dagger 12.7 5.2 60 26 24 16.1 97.25     LegendNANA
17:00 Legend Double Dagger 11.6 5.3 65 29 17 16.1 97.30     LegendNANA
18:00 Legend Double Dagger 10.1 5.3 72 29 9 16.1 97.30     LegendNANA
19:00 Legend Double Dagger 9.2 5.0 75 30 4 16.1 97.24     LegendNANA
20:00 Legend Double Dagger 8.2 5.2 81 31 11 16.1 97.27     LegendNANA
21:00 Legend Double Dagger 8.2 5.8 85 35 9 16.1 97.20     LegendNANA
22:00 Legend Double Dagger 8.4 5.1 80 32 13 16.1 97.22     LegendNANA
23:00 Legend Double Dagger 7.6 4.6 81 31 11 16.1 97.30     LegendNANA

Notes on Data Quality.

Legend

  • E = Estimated
  • M = Missing
  • NA = Not Available
  • ‡ = Partner data that is not subject to review by the National Climate Archives
Date modified: